Weather in Nyalina

Russia / Khanty-Mansi Autonomous Okrug — Yugra     61°18′17″N   69°34′43″E
temp.,
°C
wind,
m/s
gust,
m/s
humid.,
%
clouds,
%
prec.,
mm/h
press.,
hPa
HPBL,
m
12 may, wed
wed1223:00+11nnw81078100 0.2 1023827
02:00+8nnw7973100 0.0 1024901
05:00+7nnw5770100 0.0 1025737
08:00+8n564591 0.0 1025672
11:00+12nnw4530100 0.0 10251106
14:00+14nw3428100 0.0 10241541
17:00+14wnw5534100 0.0 10231451
20:00+12wsw3651100 0.0 1022545
13 may, thu
thu1323:00+11wsw4677100 0.0 1021348
02:00+10wsw3492100 0.9 1019114
05:00+11wsw4788100 0.9 1018168
08:00+15nw81275100 0.1 1018804
11:00+16n10114551 0.1 10201562
14:00+15n9104151 0.0 10231501
17:00+15n673567 0.0 10251656
20:00+14ne224351 0.0 102526
14 may, fri
fri1423:00+10sse45529 0.0 102577
02:00+8s48576 0.0 1024130
05:00+9ssw611620 0.0 1023235
08:00+13sw814535 0.0 1020402
11:00+22wsw912440 0.3 1016947
14:00+27w1013305 0.0 10143000
17:00+27wnw914265 0.0 10133107
20:00+23wnw7124031 0.0 1013303
15 may, sat
sat1523:00+19wsw5115760 0.0 1012173
02:00+17wsw61172100 0.1 1012288
05:00+16wsw61280100 0.9 1012338
08:00+19w696752 0.1 1012697
11:00+23wnw794872 0.1 10121692
14:00+18n567195 1.8 1014580
17:00+18nne3364100 1.9 1015860
20:00+17wnw1172100 0.6 1016112
16 may, sun
sun1623:00+14sse3589100 1.1 1014127
02:00+14ssw3992100 1.4 1012224
05:00+15sw2288100 1.8 101139
08:00+18wnw4568100 0.0 1011452
11:00+19nw6767100 0.3 1011774
14:00+19nw566690 0.1 1011776
17:00+17n4478100 0.3 1012436
20:00+15ene228344 0.1 1011237